Time,TemperatureF,DewpointF,PressureIn,WindDirection,WindDirectionDegrees,WindSpeedMPH,WindSpeedGustMPH,Humidity,HourlyPrecipIn,Conditions,Clouds,dailyrainin,SoftwareType,DateUTC
2013-03-01 00:01:00,68.9,60.3,30.01,East,90,3.8,4.9,74,0.00,,,0.00,WUHU216HW,2013-02-28 21:01:00,
2013-03-01 00:06:00,68.9,60.3,30.01,East,90,4.3,6.3,74,0.00,,,0.00,WUHU216HW,2013-02-28 21:06:00,
2013-03-01 00:11:00,68.8,60.1,30.00,East,90,5.6,6.3,74,0.00,,,0.00,WUHU216HW,2013-02-28 21:11:00,
2013-03-01 00:16:00,68.8,60.1,30.00,SE,135,1.8,5.8,74,0.00,,,0.00,WUHU216HW,2013-02-28 21:16:00,
2013-03-01 00:21:00,68.8,60.1,30.00,ESE,113,2.7,5.8,74,0.00,,,0.00,WUHU216HW,2013-02-28 21:21:00,
2013-03-01 00:26:00,68.8,60.1,30.00,East,90,5.4,6.7,74,0.00,,,0.00,WUHU216HW,2013-02-28 21:26:00,
2013-03-01 00:31:00,68.8,60.1,30.00,ESE,113,2.9,6.7,74,0.00,,,0.00,WUHU216HW,2013-02-28 21:31:00,
2013-03-01 00:36:00,68.8,60.5,30.00,ENE,68,1.8,5.1,75,0.00,,,0.00,WUHU216HW,2013-02-28 21:36:00,
2013-03-01 00:41:00,68.8,60.5,30.00,ESE,113,4.3,5.6,75,0.00,,,0.00,WUHU216HW,2013-02-28 21:41:00,
2013-03-01 00:46:00,68.8,60.5,30.00,ESE,113,1.8,5.6,75,0.00,,,0.00,WUHU216HW,2013-02-28 21:46:00,
2013-03-01 00:51:00,68.8,60.5,30.00,ENE,68,2.2,4.9,75,0.00,,,0.00,WUHU216HW,2013-02-28 21:51:00,
2013-03-01 00:56:00,68.8,60.8,30.00,ESE,113,3.6,4.5,76,0.00,,,0.00,WUHU216HW,2013-02-28 21:56:00,
2013-03-01 01:01:00,68.8,60.8,29.99,ESE,113,1.3,4.5,76,0.00,,,0.00,WUHU216HW,2013-02-28 22:01:00,
2013-03-01 01:06:00,68.8,60.8,29.99,ESE,113,2.7,6.0,76,0.00,,,0.00,WUHU216HW,2013-02-28 22:06:00,
2013-03-01 01:11:00,68.6,60.8,29.99,ESE,113,2.5,6.0,76,0.00,,,0.00,WUHU216HW,2013-02-28 22:11:00,
2013-03-01 01:16:00,68.6,60.8,29.99,SE,135,4.5,4.5,76,0.00,,,0.00,WUHU216HW,2013-02-28 22:16:00,
2013-03-01 01:21:00,68.6,61.1,29.99,East,90,2.9,4.5,77,0.00,,,0.00,WUHU216HW,2013-02-28 22:21:00,
2013-03-01 01:26:00,68.6,61.1,29.99,ESE,113,2.7,4.9,77,0.00,,,0.00,WUHU216HW,2013-02-28 22:26:00,
2013-03-01 01:31:00,68.6,61.1,29.99,East,90,2.5,6.0,77,0.00,,,0.00,WUHU216HW,2013-02-28 22:31:00,
2013-03-01 01:36:00,68.6,61.5,29.99,SSE,158,4.0,6.0,78,0.00,,,0.00,WUHU216HW,2013-02-28 22:36:00,
2013-03-01 01:41:00,68.6,61.5,29.99,SE,135,3.8,4.9,78,0.00,,,0.00,WUHU216HW,2013-02-28 22:41:00,
2013-03-01 01:46:00,68.6,61.5,29.99,East,90,3.1,5.4,78,0.00,,,0.00,WUHU216HW,2013-02-28 22:46:00,
2013-03-01 01:51:00,68.6,61.8,29.99,SE,135,2.7,5.4,79,0.00,,,0.00,WUHU216HW,2013-02-28 22:51:00,
2013-03-01 01:56:00,68.6,61.8,29.98,SE,135,4.7,6.0,79,0.00,,,0.00,WUHU216HW,2013-02-28 22:56:00,
2013-03-01 02:01:00,68.6,61.8,29.99,East,90,4.9,6.0,79,0.00,,,0.00,WUHU216HW,2013-02-28 23:01:00,
2013-03-01 02:06:00,68.4,61.7,29.99,SE,135,5.1,5.4,79,0.00,,,0.00,WUHU216HW,2013-02-28 23:06:00,
2013-03-01 02:11:00,68.4,61.7,29.98,ESE,113,2.7,5.4,79,0.00,,,0.00,WUHU216HW,2013-02-28 23:11:00,
2013-03-01 02:16:00,68.4,61.7,29.98,ESE,113,3.1,5.4,79,0.00,,,0.00,WUHU216HW,2013-02-28 23:16:00,
2013-03-01 02:21:00,68.4,61.7,29.98,SE,135,3.8,5.4,79,0.00,,,0.00,WUHU216HW,2013-02-28 23:21:00,
2013-03-01 02:26:00,68.4,61.7,29.98,East,90,4.0,5.4,79,0.00,,,0.00,WUHU216HW,2013-02-28 23:26:00,
2013-03-01 02:31:00,68.4,61.7,29.98,ESE,113,3.4,4.0,79,0.00,,,0.00,WUHU216HW,2013-02-28 23:31:00,
2013-03-01 02:36:00,68.4,61.7,29.98,SE,135,3.4,5.1,79,0.00,,,0.00,WUHU216HW,2013-02-28 23:36:00,
2013-03-01 02:41:00,68.4,61.7,29.98,East,90,2.2,5.1,79,0.00,,,0.00,WUHU216HW,2013-02-28 23:41:00,
2013-03-01 02:46:00,68.4,61.7,29.98,SE,135,1.1,4.7,79,0.00,,,0.00,WUHU216HW,2013-02-28 23:46:00,
2013-03-01 02:51:00,68.4,61.7,29.98,ESE,113,2.7,4.7,79,0.00,,,0.00,WUHU216HW,2013-02-28 23:51:00,
2013-03-01 02:56:00,68.2,61.6,29.98,SE,135,1.3,4.5,79,0.00,,,0.00,WUHU216HW,2013-02-28 23:56:00,
2013-03-01 03:01:00,68.2,61.6,29.98,ESE,113,3.4,4.0,79,0.00,,,0.00,WUHU216HW,2013-03-01 00:01:00,
2013-03-01 03:06:00,68.2,61.9,29.98,ESE,113,3.1,5.8,80,0.00,,,0.00,WUHU216HW,2013-03-01 00:06:00,
2013-03-01 03:12:00,68.2,61.9,29.98,ESE,113,2.7,5.8,80,0.00,,,0.00,WUHU216HW,2013-03-01 00:12:00,
2013-03-01 03:17:00,68.2,61.9,29.98,ESE,113,4.3,5.4,80,0.00,,,0.00,WUHU216HW,2013-03-01 00:17:00,
2013-03-01 03:22:00,68.2,61.9,29.98,SE,135,2.9,5.4,80,0.00,,,0.00,WUHU216HW,2013-03-01 00:22:00,
2013-03-01 03:27:00,68.2,61.9,29.98,ESE,113,2.9,4.9,80,0.00,,,0.00,WUHU216HW,2013-03-01 00:27:00,
2013-03-01 03:32:00,68.4,62.1,29.98,ESE,113,5.4,6.3,80,0.00,,,0.00,WUHU216HW,2013-03-01 00:32:00,
2013-03-01 03:37:00,68.4,62.4,29.98,SE,135,3.8,6.3,81,0.00,,,0.00,WUHU216HW,2013-03-01 00:37:00,
2013-03-01 03:42:00,68.2,62.2,29.98,East,90,4.5,5.6,81,0.00,,,0.00,WUHU216HW,2013-03-01 00:42:00,
2013-03-01 03:47:00,68.4,62.4,29.98,SE,135,3.8,5.4,81,0.00,,,0.00,WUHU216HW,2013-03-01 00:47:00,
2013-03-01 03:52:00,68.4,62.4,29.99,ESE,113,3.4,4.9,81,0.00,,,0.00,WUHU216HW,2013-03-01 00:52:00,
2013-03-01 03:57:00,68.2,62.2,29.99,ESE,113,3.6,4.7,81,0.00,,,0.00,WUHU216HW,2013-03-01 00:57:00,
2013-03-01 04:02:00,68.2,62.6,29.99,SE,135,5.4,5.4,82,0.00,,,0.00,WUHU216HW,2013-03-01 01:02:00,
2013-03-01 04:07:00,68.2,62.6,29.99,SSE,158,1.8,5.6,82,0.00,,,0.00,WUHU216HW,2013-03-01 01:07:00,
2013-03-01 04:12:00,68.2,62.6,29.99,East,90,3.1,5.6,82,0.00,,,0.00,WUHU216HW,2013-03-01 01:12:00,
2013-03-01 04:17:00,68.2,62.6,29.99,SE,135,3.1,6.3,82,0.00,,,0.00,WUHU216HW,2013-03-01 01:17:00,
2013-03-01 04:22:00,68.2,62.6,29.99,ESE,113,3.6,6.3,82,0.00,,,0.00,WUHU216HW,2013-03-01 01:22:00,
2013-03-01 04:27:00,68.2,62.9,29.99,ESE,113,4.3,5.6,83,0.00,,,0.00,WUHU216HW,2013-03-01 01:27:00,
2013-03-01 04:32:00,68.2,62.9,29.99,SE,135,4.5,5.6,83,0.00,,,0.00,WUHU216HW,2013-03-01 01:32:00,
2013-03-01 04:37:00,68.2,62.9,29.99,SE,135,3.4,5.8,83,0.00,,,0.00,WUHU216HW,2013-03-01 01:37:00,
2013-03-01 04:42:00,68.2,63.2,29.99,ESE,113,4.0,6.0,84,0.00,,,0.00,WUHU216HW,2013-03-01 01:42:00,
2013-03-01 04:47:00,68.2,63.2,29.99,SE,135,5.6,6.3,84,0.00,,,0.00,WUHU216HW,2013-03-01 01:47:00,
2013-03-01 04:52:00,68.2,63.2,29.99,SE,135,3.4,6.9,84,0.00,,,0.00,WUHU216HW,2013-03-01 01:52:00,
2013-03-01 04:57:00,68.4,63.4,30.00,SE,135,3.4,6.9,84,0.00,,,0.00,WUHU216HW,2013-03-01 01:57:00,
2013-03-01 05:02:00,68.2,63.2,30.00,SE,135,3.6,6.3,84,0.00,,,0.00,WUHU216HW,2013-03-01 02:02:00,
2013-03-01 05:07:00,68.2,63.6,30.00,SE,135,3.8,6.3,85,0.00,,,0.00,WUHU216HW,2013-03-01 02:07:00,
2013-03-01 05:12:00,68.2,63.6,30.00,SE,135,4.0,5.6,85,0.00,,,0.00,WUHU216HW,2013-03-01 02:12:00,
2013-03-01 05:17:00,68.2,63.6,30.00,SE,135,4.9,5.8,85,0.00,,,0.00,WUHU216HW,2013-03-01 02:17:00,
2013-03-01 05:22:00,68.2,63.6,30.00,ESE,113,3.8,5.8,85,0.00,,,0.00,WUHU216HW,2013-03-01 02:22:00,
2013-03-01 05:27:00,68.2,63.6,30.00,SE,135,2.9,4.9,85,0.00,,,0.00,WUHU216HW,2013-03-01 02:27:00,
2013-03-01 05:32:00,68.2,63.6,30.01,ESE,113,4.0,5.6,85,0.00,,,0.00,WUHU216HW,2013-03-01 02:32:00,
2013-03-01 05:37:00,68.2,63.6,30.01,ESE,113,3.4,6.0,85,0.00,,,0.00,WUHU216HW,2013-03-01 02:37:00,
2013-03-01 05:42:00,68.2,63.6,30.01,SE,135,4.7,6.0,85,0.00,,,0.00,WUHU216HW,2013-03-01 02:42:00,
2013-03-01 05:47:00,68.2,63.6,30.01,ESE,113,4.3,5.6,85,0.00,,,0.00,WUHU216HW,2013-03-01 02:47:00,
2013-03-01 05:52:00,68.2,63.9,30.01,ESE,113,4.0,6.3,86,0.00,,,0.00,WUHU216HW,2013-03-01 02:52:00,
2013-03-01 05:57:00,68.2,63.9,30.01,ESE,113,4.9,6.3,86,0.00,,,0.00,WUHU216HW,2013-03-01 02:57:00,
2013-03-01 06:02:00,68.2,63.9,30.01,SE,135,4.3,6.5,86,0.00,,,0.00,WUHU216HW,2013-03-01 03:02:00,
2013-03-01 06:07:00,68.4,64.0,30.02,SE,135,5.4,6.5,86,0.00,,,0.00,WUHU216HW,2013-03-01 03:07:00,
2013-03-01 06:12:00,68.2,63.9,30.02,SE,135,3.4,6.0,86,0.00,,,0.00,WUHU216HW,2013-03-01 03:12:00,
2013-03-01 06:17:00,68.4,64.0,30.02,SE,135,4.0,5.6,86,0.00,,,0.00,WUHU216HW,2013-03-01 03:17:00,
2013-03-01 06:22:00,68.4,64.0,30.02,ESE,113,4.9,5.6,86,0.00,,,0.00,WUHU216HW,2013-03-01 03:22:00,
2013-03-01 06:27:00,68.6,64.2,30.02,ESE,113,4.7,8.1,86,0.00,,,0.00,WUHU216HW,2013-03-01 03:27:00,
2013-03-01 06:32:00,68.8,64.4,30.02,SE,135,6.0,8.1,86,0.00,,,0.00,WUHU216HW,2013-03-01 03:32:00,
2013-03-01 06:37:00,68.8,64.4,30.02,SSE,158,4.7,7.2,86,0.00,,,0.00,WUHU216HW,2013-03-01 03:37:00,
2013-03-01 06:42:00,68.9,64.5,30.02,ESE,113,5.6,7.6,86,0.00,,,0.00,WUHU216HW,2013-03-01 03:42:00,
2013-03-01 06:47:00,69.1,64.7,30.03,SE,135,4.7,7.6,86,0.00,,,0.00,WUHU216HW,2013-03-01 03:47:00,
2013-03-01 06:52:00,69.3,64.9,30.03,SE,135,4.0,7.6,86,0.00,,,0.00,WUHU216HW,2013-03-01 03:52:00,
2013-03-01 06:57:00,69.5,65.1,30.03,SSE,158,6.5,7.6,86,0.00,,,0.00,WUHU216HW,2013-03-01 03:57:00,
2013-03-01 07:02:00,69.5,64.7,30.03,SE,135,6.5,8.3,85,0.00,,,0.00,WUHU216HW,2013-03-01 04:02:00,
2013-03-01 07:07:00,69.7,64.9,30.03,SE,135,4.7,8.3,85,0.00,,,0.00,WUHU216HW,2013-03-01 04:07:00,
2013-03-01 07:12:00,69.8,64.7,30.03,SE,135,6.3,8.1,84,0.00,,,0.00,WUHU216HW,2013-03-01 04:12:00,
2013-03-01 07:17:00,70.0,64.9,30.03,SSE,158,6.0,8.5,84,0.00,,,0.00,WUHU216HW,2013-03-01 04:17:00,
2013-03-01 07:22:00,70.2,65.1,30.03,SE,135,7.2,8.7,84,0.00,,,0.00,WUHU216HW,2013-03-01 04:22:00,
2013-03-01 07:27:00,70.4,65.3,30.03,SE,135,7.6,9.2,84,0.00,,,0.00,WUHU216HW,2013-03-01 04:27:00,
2013-03-01 07:32:00,70.6,65.1,30.03,SE,135,6.3,9.2,83,0.00,,,0.00,WUHU216HW,2013-03-01 04:32:00,
2013-03-01 07:37:00,70.7,65.0,30.03,SE,135,7.6,9.6,82,0.00,,,0.00,WUHU216HW,2013-03-01 04:37:00,
2013-03-01 07:42:00,70.9,65.2,30.03,SE,135,8.9,9.6,82,0.00,,,0.00,WUHU216HW,2013-03-01 04:42:00,
2013-03-01 07:47:00,70.9,64.8,30.04,SE,135,6.9,9.2,81,0.00,,,0.00,WUHU216HW,2013-03-01 04:47:00,
2013-03-01 07:52:00,71.3,64.8,30.04,SSE,158,8.1,9.4,80,0.00,,,0.00,WUHU216HW,2013-03-01 04:52:00,
2013-03-01 07:57:00,71.5,65.0,30.04,SSE,158,8.9,9.4,80,0.00,,,0.00,WUHU216HW,2013-03-01 04:57:00,
2013-03-01 08:00:00,71.5,64.6,30.04,ESE,113,8.3,9.2,79,0.00,,,0.00,WUHU216HW,2013-03-01 05:00:00,
2013-03-01 08:05:00,71.6,64.5,30.04,SE,135,7.6,9.6,78,0.00,,,0.00,WUHU216HW,2013-03-01 05:05:00,
2013-03-01 08:06:00,71.6,64.5,30.04,SE,135,6.9,9.6,78,0.00,,,0.00,WUHU216HW,2013-03-01 05:06:00,
2013-03-01 08:11:00,71.6,64.0,30.04,SE,135,8.5,9.8,77,0.00,,,0.00,WUHU216HW,2013-03-01 05:11:00,
2013-03-01 08:16:00,72.0,64.4,30.04,SE,135,8.7,9.8,77,0.00,,,0.00,WUHU216HW,2013-03-01 05:16:00,
2013-03-01 08:21:00,72.0,64.4,30.04,SE,135,9.2,12.1,77,0.00,,,0.00,WUHU216HW,2013-03-01 05:21:00,
2013-03-01 08:26:00,72.2,64.2,30.04,SE,135,9.2,12.1,76,0.00,,,0.00,WUHU216HW,2013-03-01 05:26:00,
2013-03-01 08:31:00,72.4,64.7,30.04,SE,135,9.6,10.5,77,0.00,,,0.00,WUHU216HW,2013-03-01 05:31:00,
2013-03-01 08:36:00,72.5,64.9,30.04,SE,135,9.4,11.4,77,0.00,,,0.00,WUHU216HW,2013-03-01 05:36:00,
2013-03-01 08:41:00,72.7,65.1,30.04,SE,135,5.4,11.4,77,0.00,,,0.00,WUHU216HW,2013-03-01 05:41:00,
2013-03-01 08:46:00,73.1,65.1,30.04,SE,135,4.3,9.4,76,0.00,,,0.00,WUHU216HW,2013-03-01 05:46:00,
2013-03-01 08:51:00,73.3,65.3,30.04,SE,135,7.6,9.8,76,0.00,,,0.00,WUHU216HW,2013-03-01 05:51:00,
2013-03-01 08:56:00,73.4,65.1,30.04,SSE,158,4.0,9.8,75,0.00,,,0.00,WUHU216HW,2013-03-01 05:56:00,
2013-03-01 09:01:00,73.6,65.3,30.04,SSE,158,5.6,8.9,75,0.00,,,0.00,WUHU216HW,2013-03-01 06:01:00,
2013-03-01 09:06:00,73.8,65.4,30.05,SE,135,7.2,8.9,75,0.00,,,0.00,WUHU216HW,2013-03-01 06:06:00,
2013-03-01 09:11:00,73.8,65.4,30.04,SSE,158,6.3,7.8,75,0.00,,,0.00,WUHU216HW,2013-03-01 06:11:00,
2013-03-01 09:16:00,73.8,65.4,30.04,SE,135,6.3,11.2,75,0.00,,,0.00,WUHU216HW,2013-03-01 06:16:00,
2013-03-01 09:21:00,73.8,65.4,30.05,SE,135,6.9,11.2,75,0.00,,,0.00,WUHU216HW,2013-03-01 06:21:00,
2013-03-01 09:26:00,74.0,65.2,30.05,ESE,113,6.9,8.5,74,0.00,,,0.00,WUHU216HW,2013-03-01 06:26:00,
2013-03-01 09:31:00,74.2,65.0,30.05,ESE,113,8.3,11.6,73,0.00,,,0.00,WUHU216HW,2013-03-01 06:31:00,
2013-03-01 09:36:00,74.2,65.3,30.05,SE,135,7.6,11.6,74,0.00,,,0.00,WUHU216HW,2013-03-01 06:36:00,
2013-03-01 09:41:00,74.3,65.2,30.05,SE,135,7.2,9.2,73,0.00,,,0.00,WUHU216HW,2013-03-01 06:41:00,
2013-03-01 09:46:00,74.5,65.4,30.05,SE,135,6.9,10.5,73,0.00,,,0.00,WUHU216HW,2013-03-01 06:46:00,
2013-03-01 09:51:00,74.5,65.4,30.05,ESE,113,7.4,10.5,73,0.00,,,0.00,WUHU216HW,2013-03-01 06:51:00,
2013-03-01 09:56:00,74.5,65.4,30.05,ESE,113,6.7,10.7,73,0.00,,,0.00,WUHU216HW,2013-03-01 06:56:00,
2013-03-01 10:01:00,74.7,65.5,30.05,SE,135,4.3,10.7,73,0.00,,,0.00,WUHU216HW,2013-03-01 07:01:00,
2013-03-01 10:06:00,75.1,65.4,30.05,ESE,113,6.0,8.3,72,0.00,,,0.00,WUHU216HW,2013-03-01 07:06:00,
2013-03-01 10:11:00,75.2,65.6,30.05,SE,135,8.7,8.7,72,0.00,,,0.00,WUHU216HW,2013-03-01 07:11:00,
2013-03-01 10:16:00,75.2,65.2,30.05,SE,135,7.4,10.5,71,0.00,,,0.00,WUHU216HW,2013-03-01 07:16:00,
2013-03-01 10:21:00,75.2,65.2,30.05,SE,135,6.7,10.5,71,0.00,,,0.00,WUHU216HW,2013-03-01 07:21:00,
2013-03-01 10:26:00,75.2,65.2,30.04,ESE,113,10.5,10.5,71,0.00,,,0.00,WUHU216HW,2013-03-01 07:26:00,
2013-03-01 10:31:00,75.4,65.0,30.04,ESE,113,7.2,10.5,70,0.00,,,0.00,WUHU216HW,2013-03-01 07:31:00,
2013-03-01 10:36:00,75.1,64.6,30.04,SE,135,8.9,11.6,70,0.00,,,0.00,WUHU216HW,2013-03-01 07:36:00,
2013-03-01 10:41:00,75.2,64.8,30.04,SSE,158,5.4,11.6,70,0.00,,,0.00,WUHU216HW,2013-03-01 07:41:00,
2013-03-01 10:46:00,75.2,64.8,30.04,ESE,113,6.9,10.7,70,0.00,,,0.00,WUHU216HW,2013-03-01 07:46:00,
2013-03-01 10:51:00,75.4,64.5,30.04,SSE,158,8.1,9.8,69,0.00,,,0.00,WUHU216HW,2013-03-01 07:51:00,
2013-03-01 10:56:00,75.2,64.4,30.04,SE,135,8.5,10.7,69,0.00,,,0.00,WUHU216HW,2013-03-01 07:56:00,
2013-03-01 11:01:00,75.4,64.5,30.04,SE,135,4.7,10.7,69,0.00,,,0.00,WUHU216HW,2013-03-01 08:01:00,
2013-03-01 11:06:00,75.6,64.7,30.04,SE,135,5.6,9.8,69,0.00,,,0.00,WUHU216HW,2013-03-01 08:06:00,
2013-03-01 11:11:00,75.6,64.3,30.04,SE,135,7.2,9.8,68,0.00,,,0.00,WUHU216HW,2013-03-01 08:11:00,
2013-03-01 11:16:00,76.0,65.1,30.03,SE,135,7.4,8.5,69,0.00,,,0.00,WUHU216HW,2013-03-01 08:16:00,
2013-03-01 11:21:00,75.8,64.4,30.03,ESE,113,6.5,10.5,68,0.00,,,0.00,WUHU216HW,2013-03-01 08:21:00,
2013-03-01 11:26:00,76.0,64.6,30.03,SE,135,8.5,11.0,68,0.00,,,0.00,WUHU216HW,2013-03-01 08:26:00,
2013-03-01 11:31:00,75.6,64.7,30.03,ENE,68,5.4,11.0,69,0.00,,,0.00,WUHU216HW,2013-03-01 08:31:00,
2013-03-01 11:36:00,75.8,64.9,30.03,SE,135,8.1,9.4,69,0.00,,,0.00,WUHU216HW,2013-03-01 08:36:00,
2013-03-01 11:41:00,76.0,65.1,30.02,ESE,113,7.8,8.7,69,0.00,,,0.00,WUHU216HW,2013-03-01 08:41:00,
2013-03-01 11:46:00,76.0,65.1,30.02,SE,135,7.4,9.4,69,0.00,,,0.00,WUHU216HW,2013-03-01 08:46:00,
2013-03-01 11:51:00,75.6,64.7,30.02,SSE,158,7.6,11.4,69,0.00,,,0.00,WUHU216HW,2013-03-01 08:51:00,
2013-03-01 11:56:00,75.6,64.7,30.02,SSE,158,6.3,11.4,69,0.00,,,0.00,WUHU216HW,2013-03-01 08:56:00,
2013-03-01 12:01:00,75.6,64.7,30.02,ESE,113,7.8,11.4,69,0.00,,,0.00,WUHU216HW,2013-03-01 09:01:00,
2013-03-01 12:06:00,75.8,65.3,30.01,SSE,158,6.3,11.4,70,0.00,,,0.00,WUHU216HW,2013-03-01 09:06:00,
2013-03-01 12:11:00,76.1,65.3,30.01,SSE,158,5.1,10.3,69,0.00,,,0.00,WUHU216HW,2013-03-01 09:11:00,
2013-03-01 12:16:00,76.5,65.6,30.01,SE,135,6.5,7.8,69,0.00,,,0.00,WUHU216HW,2013-03-01 09:16:00,
2013-03-01 12:21:00,76.7,64.9,30.01,SE,135,7.6,7.6,67,0.00,,,0.00,WUHU216HW,2013-03-01 09:21:00,
2013-03-01 12:26:00,76.5,64.7,30.01,SSE,158,4.5,7.6,67,0.00,,,0.00,WUHU216HW,2013-03-01 09:26:00,
2013-03-01 12:31:00,76.5,64.7,30.01,SSE,158,6.9,7.6,67,0.00,,,0.00,WUHU216HW,2013-03-01 09:31:00,
2013-03-01 12:36:00,76.3,64.5,30.00,ESE,113,10.5,10.5,67,0.00,,,0.00,WUHU216HW,2013-03-01 09:36:00,
2013-03-01 12:41:00,76.0,64.6,30.00,ESE,113,9.4,10.5,68,0.00,,,0.00,WUHU216HW,2013-03-01 09:41:00,
2013-03-01 12:46:00,76.0,64.6,30.00,SE,135,6.3,10.5,68,0.00,,,0.00,WUHU216HW,2013-03-01 09:46:00,
2013-03-01 12:51:00,76.1,64.8,30.00,SE,135,6.9,9.4,68,0.00,,,0.00,WUHU216HW,2013-03-01 09:51:00,
2013-03-01 12:56:00,76.3,64.5,30.00,SE,135,5.4,9.2,67,0.00,,,0.00,WUHU216HW,2013-03-01 09:56:00,
2013-03-01 13:01:00,76.3,64.5,29.99,ESE,113,5.8,9.2,67,0.00,,,0.00,WUHU216HW,2013-03-01 10:01:00,
2013-03-01 13:06:00,76.5,64.3,29.99,SSE,158,6.5,8.9,66,0.00,,,0.00,WUHU216HW,2013-03-01 10:06:00,
2013-03-01 13:11:00,76.3,64.1,29.99,SSE,158,7.8,9.6,66,0.00,,,0.00,WUHU216HW,2013-03-01 10:11:00,
2013-03-01 13:16:00,76.3,64.1,29.99,SE,135,5.1,9.6,66,0.00,,,0.00,WUHU216HW,2013-03-01 10:16:00,
2013-03-01 13:21:00,76.7,64.4,29.98,SSE,158,4.5,7.8,66,0.00,,,0.00,WUHU216HW,2013-03-01 10:21:00,
2013-03-01 13:26:00,76.9,64.6,29.98,East,90,3.8,8.3,66,0.00,,,0.00,WUHU216HW,2013-03-01 10:26:00,
2013-03-01 13:31:00,77.0,64.8,29.98,ESE,113,5.4,8.3,66,0.00,,,0.00,WUHU216HW,2013-03-01 10:31:00,
2013-03-01 13:36:00,77.4,64.7,29.98,SE,135,8.3,8.3,65,0.00,,,0.00,WUHU216HW,2013-03-01 10:36:00,
2013-03-01 13:41:00,77.4,64.7,29.98,East,90,6.3,8.3,65,0.00,,,0.00,WUHU216HW,2013-03-01 10:41:00,
2013-03-01 13:46:00,77.4,65.2,29.98,East,90,6.3,8.5,66,0.00,,,0.00,WUHU216HW,2013-03-01 10:46:00,
2013-03-01 13:51:00,77.2,65.0,29.97,ESE,113,4.0,9.8,66,0.00,,,0.00,WUHU216HW,2013-03-01 10:51:00,
2013-03-01 13:56:00,77.0,64.8,29.97,ESE,113,5.4,9.8,66,0.00,,,0.00,WUHU216HW,2013-03-01 10:56:00,
2013-03-01 14:01:00,77.0,64.8,29.97,ENE,68,5.1,8.5,66,0.00,,,0.00,WUHU216HW,2013-03-01 11:01:00,
2013-03-01 14:06:00,77.4,65.2,29.97,ENE,68,6.7,7.6,66,0.00,,,0.00,WUHU216HW,2013-03-01 11:06:00,
2013-03-01 14:11:00,77.0,64.8,29.97,ESE,113,5.6,8.1,66,0.00,,,0.00,WUHU216HW,2013-03-01 11:11:00,
2013-03-01 14:16:00,77.2,65.0,29.97,South,180,3.6,8.5,66,0.00,,,0.00,WUHU216HW,2013-03-01 11:16:00,
2013-03-01 14:21:00,77.4,65.2,29.97,East,90,8.9,8.9,66,0.00,,,0.00,WUHU216HW,2013-03-01 11:21:00,
2013-03-01 14:26:00,76.9,66.0,29.96,ESE,113,6.3,9.8,69,0.00,,,0.00,WUHU216HW,2013-03-01 11:26:00,
2013-03-01 14:31:00,76.7,66.2,29.96,ENE,68,8.5,10.1,70,0.00,,,0.00,WUHU216HW,2013-03-01 11:31:00,
2013-03-01 14:36:00,76.7,66.2,29.96,East,90,6.0,11.0,70,0.00,,,0.00,WUHU216HW,2013-03-01 11:36:00,
2013-03-01 14:41:00,76.7,66.2,29.96,ESE,113,7.8,11.0,70,0.00,,,0.00,WUHU216HW,2013-03-01 11:41:00,
2013-03-01 14:46:00,76.7,66.2,29.96,SSW,203,3.4,8.1,70,0.00,,,0.00,WUHU216HW,2013-03-01 11:46:00,
2013-03-01 14:51:00,77.0,66.6,29.96,NNE,23,6.3,8.5,70,0.00,,,0.00,WUHU216HW,2013-03-01 11:51:00,
2013-03-01 14:57:00,77.0,66.6,29.96,East,90,4.0,8.5,70,0.00,,,0.00,WUHU216HW,2013-03-01 11:57:00,
2013-03-01 15:02:00,77.2,66.3,29.96,ENE,68,4.7,7.8,69,0.00,,,0.00,WUHU216HW,2013-03-01 12:02:00,
2013-03-01 15:07:00,77.2,66.3,29.96,East,90,3.4,8.9,69,0.00,,,0.00,WUHU216HW,2013-03-01 12:07:00,
2013-03-01 15:12:00,77.2,66.3,29.96,SE,135,5.1,8.9,69,0.00,,,0.00,WUHU216HW,2013-03-01 12:12:00,
2013-03-01 15:17:00,77.2,66.3,29.96,SSE,158,5.4,8.5,69,0.00,,,0.00,WUHU216HW,2013-03-01 12:17:00,
2013-03-01 15:22:00,77.2,66.3,29.96,ENE,68,2.5,8.5,69,0.00,,,0.00,WUHU216HW,2013-03-01 12:22:00,
2013-03-01 15:27:00,77.4,66.5,29.96,NNE,23,3.6,6.9,69,0.00,,,0.00,WUHU216HW,2013-03-01 12:27:00,
2013-03-01 15:32:00,77.2,66.3,29.96,ESE,113,6.3,6.7,69,0.00,,,0.00,WUHU216HW,2013-03-01 12:32:00,
2013-03-01 15:37:00,76.9,66.4,29.96,ESE,113,4.7,6.7,70,0.00,,,0.00,WUHU216HW,2013-03-01 12:37:00,
2013-03-01 15:42:00,76.7,66.2,29.96,East,90,7.4,7.4,70,0.00,,,0.00,WUHU216HW,2013-03-01 12:42:00,
2013-03-01 15:47:00,76.5,66.4,29.96,SE,135,5.4,8.9,71,0.00,,,0.00,WUHU216HW,2013-03-01 12:47:00,
2013-03-01 15:52:00,76.3,66.2,29.96,ENE,68,6.9,8.9,71,0.00,,,0.00,WUHU216HW,2013-03-01 12:52:00,
2013-03-01 15:57:00,76.3,66.2,29.96,ENE,68,6.9,9.2,71,0.00,,,0.00,WUHU216HW,2013-03-01 12:57:00,
2013-03-01 16:02:00,76.5,66.9,29.96,East,90,7.4,9.2,72,0.00,,,0.00,WUHU216HW,2013-03-01 13:02:00,
2013-03-01 16:07:00,76.3,66.7,29.96,East,90,6.5,8.3,72,0.00,,,0.00,WUHU216HW,2013-03-01 13:07:00,
2013-03-01 16:12:00,76.0,66.3,29.97,ENE,68,6.9,8.7,72,0.00,,,0.00,WUHU216HW,2013-03-01 13:12:00,
2013-03-01 16:17:00,76.0,65.9,29.97,North,0,5.4,8.7,71,0.00,,,0.00,WUHU216HW,2013-03-01 13:17:00,
2013-03-01 16:22:00,75.8,65.7,29.97,ESE,113,5.8,7.6,71,0.00,,,0.00,WUHU216HW,2013-03-01 13:22:00,
2013-03-01 16:27:00,75.8,65.7,29.97,East,90,4.0,8.9,71,0.00,,,0.00,WUHU216HW,2013-03-01 13:27:00,
2013-03-01 16:32:00,75.4,65.8,29.97,ESE,113,5.1,8.9,72,0.00,,,0.00,WUHU216HW,2013-03-01 13:32:00,
2013-03-01 16:37:00,75.4,65.8,29.97,ESE,113,8.5,8.7,72,0.00,,,0.00,WUHU216HW,2013-03-01 13:37:00,
2013-03-01 16:42:00,75.1,65.8,29.97,East,90,6.9,8.9,73,0.00,,,0.00,WUHU216HW,2013-03-01 13:42:00,
2013-03-01 16:47:00,75.1,65.8,29.97,ESE,113,7.6,8.9,73,0.00,,,0.00,WUHU216HW,2013-03-01 13:47:00,
2013-03-01 16:52:00,74.9,65.6,29.97,ENE,68,6.3,9.8,73,0.00,,,0.00,WUHU216HW,2013-03-01 13:52:00,
2013-03-01 16:57:00,74.9,65.6,29.97,East,90,8.9,9.8,73,0.00,,,0.00,WUHU216HW,2013-03-01 13:57:00,
2013-03-01 17:02:00,74.5,65.4,29.96,East,90,4.7,9.2,73,0.00,,,0.00,WUHU216HW,2013-03-01 14:02:00,
2013-03-01 17:07:00,74.5,65.7,29.97,East,90,6.0,9.2,74,0.00,,,0.00,WUHU216HW,2013-03-01 14:07:00,
2013-03-01 17:12:00,74.2,65.3,29.96,ENE,68,5.8,8.9,74,0.00,,,0.00,WUHU216HW,2013-03-01 14:12:00,
2013-03-01 17:17:00,74.2,65.3,29.97,East,90,5.4,9.2,74,0.00,,,0.00,WUHU216HW,2013-03-01 14:17:00,
2013-03-01 17:22:00,73.8,65.4,29.96,ENE,68,6.7,9.6,75,0.00,,,0.00,WUHU216HW,2013-03-01 14:22:00,
2013-03-01 17:27:00,73.6,65.3,29.96,ESE,113,6.9,9.6,75,0.00,,,0.00,WUHU216HW,2013-03-01 14:27:00,
2013-03-01 17:32:00,73.4,65.1,29.96,SE,135,5.1,8.5,75,0.00,,,0.00,WUHU216HW,2013-03-01 14:32:00,
2013-03-01 17:37:00,73.4,65.1,29.96,East,90,4.7,8.5,75,0.00,,,0.00,WUHU216HW,2013-03-01 14:37:00,
2013-03-01 17:42:00,73.3,65.3,29.96,East,90,4.7,8.5,76,0.00,,,0.00,WUHU216HW,2013-03-01 14:42:00,
2013-03-01 17:47:00,73.3,65.6,29.97,ESE,113,5.6,8.5,77,0.00,,,0.00,WUHU216HW,2013-03-01 14:47:00,
2013-03-01 17:52:00,73.1,65.4,29.97,ESE,113,5.8,7.8,77,0.00,,,0.00,WUHU216HW,2013-03-01 14:52:00,
2013-03-01 17:57:00,73.1,65.4,29.97,ENE,68,4.0,7.8,77,0.00,,,0.00,WUHU216HW,2013-03-01 14:57:00,
2013-03-01 18:02:00,73.1,65.4,29.97,ENE,68,5.4,8.9,77,0.00,,,0.00,WUHU216HW,2013-03-01 15:02:00,
2013-03-01 18:07:00,72.9,65.3,29.97,ENE,68,5.4,8.9,77,0.00,,,0.00,WUHU216HW,2013-03-01 15:07:00,
2013-03-01 18:12:00,72.9,65.3,29.97,ESE,113,5.8,8.5,77,0.00,,,0.00,WUHU216HW,2013-03-01 15:12:00,
2013-03-01 18:17:00,72.7,65.1,29.97,East,90,6.3,8.5,77,0.00,,,0.00,WUHU216HW,2013-03-01 15:17:00,
2013-03-01 18:22:00,72.7,65.1,29.97,NE,45,6.9,8.3,77,0.00,,,0.00,WUHU216HW,2013-03-01 15:22:00,
2013-03-01 18:27:00,72.7,65.5,29.97,ESE,113,6.0,8.3,78,0.00,,,0.00,WUHU216HW,2013-03-01 15:27:00,
2013-03-01 18:32:00,72.5,65.4,29.96,ENE,68,5.4,9.6,78,0.00,,,0.00,WUHU216HW,2013-03-01 15:32:00,
2013-03-01 18:37:00,72.5,65.4,29.97,ESE,113,7.2,9.6,78,0.00,,,0.00,WUHU216HW,2013-03-01 15:37:00,
2013-03-01 18:42:00,72.4,64.7,29.97,ENE,68,7.6,9.6,77,0.00,,,0.00,WUHU216HW,2013-03-01 15:42:00,
2013-03-01 18:47:00,72.4,64.7,29.98,ESE,113,4.9,8.5,77,0.00,,,0.00,WUHU216HW,2013-03-01 15:47:00,
2013-03-01 18:52:00,72.4,65.2,29.97,East,90,6.0,8.9,78,0.00,,,0.00,WUHU216HW,2013-03-01 15:52:00,
2013-03-01 18:57:00,72.4,65.2,29.98,East,90,6.3,9.8,78,0.00,,,0.00,WUHU216HW,2013-03-01 15:57:00,
2013-03-01 19:02:00,72.4,65.5,29.98,ENE,68,8.1,9.8,79,0.00,,,0.00,WUHU216HW,2013-03-01 16:02:00,
2013-03-01 19:07:00,72.4,65.5,29.98,East,90,7.8,10.1,79,0.00,,,0.00,WUHU216HW,2013-03-01 16:07:00,
2013-03-01 19:12:00,72.4,65.5,29.98,East,90,7.6,10.1,79,0.00,,,0.00,WUHU216HW,2013-03-01 16:12:00,
2013-03-01 19:17:00,72.2,65.4,29.99,East,90,7.2,9.8,79,0.00,,,0.00,WUHU216HW,2013-03-01 16:17:00,
2013-03-01 19:22:00,72.2,65.4,29.99,ESE,113,4.7,9.8,79,0.00,,,0.00,WUHU216HW,2013-03-01 16:22:00,
2013-03-01 19:27:00,72.2,65.7,29.99,East,90,8.1,8.5,80,0.00,,,0.00,WUHU216HW,2013-03-01 16:27:00,
2013-03-01 19:32:00,72.2,65.7,29.99,ESE,113,5.4,10.5,80,0.00,,,0.00,WUHU216HW,2013-03-01 16:32:00,
2013-03-01 19:37:00,72.2,65.7,29.99,ENE,68,6.5,10.5,80,0.00,,,0.00,WUHU216HW,2013-03-01 16:37:00,
2013-03-01 19:42:00,72.0,65.5,29.99,ESE,113,8.7,9.8,80,0.00,,,0.00,WUHU216HW,2013-03-01 16:42:00,
2013-03-01 19:47:00,72.0,65.5,29.99,ESE,113,6.9,9.8,80,0.00,,,0.00,WUHU216HW,2013-03-01 16:47:00,
2013-03-01 19:52:00,72.0,65.5,29.99,East,90,6.3,9.4,80,0.00,,,0.00,WUHU216HW,2013-03-01 16:52:00,
2013-03-01 19:57:00,72.0,65.5,30.00,ENE,68,8.3,9.4,80,0.00,,,0.00,WUHU216HW,2013-03-01 16:57:00,
2013-03-01 20:02:00,72.0,65.9,30.00,East,90,6.9,9.8,81,0.00,,,0.00,WUHU216HW,2013-03-01 17:02:00,
2013-03-01 20:07:00,72.0,65.9,30.00,ENE,68,5.1,9.8,81,0.00,,,0.00,WUHU216HW,2013-03-01 17:07:00,
2013-03-01 20:12:00,71.8,65.7,30.00,East,90,5.8,9.6,81,0.00,,,0.00,WUHU216HW,2013-03-01 17:12:00,
2013-03-01 20:17:00,71.8,65.7,30.00,East,90,5.6,9.8,81,0.00,,,0.00,WUHU216HW,2013-03-01 17:17:00,
2013-03-01 20:22:00,71.8,65.7,30.00,ENE,68,5.4,9.8,81,0.00,,,0.00,WUHU216HW,2013-03-01 17:22:00,
2013-03-01 20:27:00,71.6,65.2,30.00,East,90,6.9,7.6,80,0.00,,,0.00,WUHU216HW,2013-03-01 17:27:00,
2013-03-01 20:32:00,71.8,65.3,30.00,ENE,68,4.7,7.6,80,0.00,,,0.00,WUHU216HW,2013-03-01 17:32:00,
2013-03-01 20:37:00,71.6,65.2,30.00,ESE,113,4.9,7.4,80,0.00,,,0.00,WUHU216HW,2013-03-01 17:37:00,
2013-03-01 20:42:00,71.6,65.5,30.01,East,90,8.1,8.1,81,0.00,,,0.00,WUHU216HW,2013-03-01 17:42:00,
2013-03-01 20:47:00,71.6,65.5,30.01,East,90,4.9,8.1,81,0.00,,,0.00,WUHU216HW,2013-03-01 17:47:00,
2013-03-01 20:52:00,71.6,65.5,30.01,NE,45,5.4,8.1,81,0.00,,,0.00,WUHU216HW,2013-03-01 17:52:00,
2013-03-01 20:57:00,71.6,65.5,30.01,ENE,68,6.9,8.5,81,0.00,,,0.00,WUHU216HW,2013-03-01 17:57:00,
2013-03-01 21:02:00,71.6,65.5,30.01,East,90,6.7,8.7,81,0.00,,,0.00,WUHU216HW,2013-03-01 18:02:00,
2013-03-01 21:07:00,71.6,65.5,30.01,East,90,8.1,8.7,81,0.00,,,0.00,WUHU216HW,2013-03-01 18:07:00,
2013-03-01 21:12:00,71.6,65.5,30.01,ESE,113,6.9,8.1,81,0.00,,,0.00,WUHU216HW,2013-03-01 18:12:00,
2013-03-01 21:17:00,71.5,65.4,30.01,ENE,68,6.9,7.6,81,0.00,,,0.00,WUHU216HW,2013-03-01 18:17:00,
2013-03-01 21:22:00,71.5,65.4,30.01,ESE,113,6.9,7.6,81,0.00,,,0.00,WUHU216HW,2013-03-01 18:22:00,
2013-03-01 21:27:00,71.5,65.4,30.01,East,90,4.3,6.9,81,0.00,,,0.00,WUHU216HW,2013-03-01 18:27:00,
2013-03-01 21:32:00,71.5,65.4,30.01,East,90,5.6,7.6,81,0.00,,,0.00,WUHU216HW,2013-03-01 18:32:00,
2013-03-01 21:37:00,71.5,65.4,30.01,East,90,3.8,7.6,81,0.00,,,0.00,WUHU216HW,2013-03-01 18:37:00,
2013-03-01 21:42:00,71.5,65.4,30.01,ENE,68,6.5,8.7,81,0.00,,,0.00,WUHU216HW,2013-03-01 18:42:00,
2013-03-01 21:47:00,71.3,65.5,30.01,East,90,6.5,8.7,82,0.00,,,0.00,WUHU216HW,2013-03-01 18:47:00,
2013-03-01 21:52:00,71.5,65.4,30.01,East,90,4.9,8.5,81,0.00,,,0.00,WUHU216HW,2013-03-01 18:52:00,
2013-03-01 21:57:00,71.3,65.2,30.00,ENE,68,4.7,8.5,81,0.00,,,0.00,WUHU216HW,2013-03-01 18:57:00,
2013-03-01 22:02:00,71.3,65.2,30.00,ENE,68,2.2,8.3,81,0.00,,,0.00,WUHU216HW,2013-03-01 19:02:00,
2013-03-01 22:07:00,71.3,65.2,30.00,NNE,23,2.2,8.3,81,0.00,,,0.00,WUHU216HW,2013-03-01 19:07:00,
2013-03-01 22:12:00,71.3,65.5,30.00,ENE,68,6.3,6.3,82,0.00,,,0.00,WUHU216HW,2013-03-01 19:12:00,
2013-03-01 22:17:00,71.3,65.2,30.01,ENE,68,4.5,6.3,81,0.00,,,0.00,WUHU216HW,2013-03-01 19:17:00,
2013-03-01 22:22:00,71.3,65.2,30.01,ESE,113,3.6,6.3,81,0.00,,,0.00,WUHU216HW,2013-03-01 19:22:00,
2013-03-01 22:27:00,71.3,65.2,30.01,ENE,68,2.9,5.6,81,0.00,,,0.00,WUHU216HW,2013-03-01 19:27:00,
2013-03-01 22:32:00,71.3,65.2,30.01,ESE,113,3.4,5.8,81,0.00,,,0.00,WUHU216HW,2013-03-01 19:32:00,
2013-03-01 22:37:00,71.3,65.2,30.00,ESE,113,3.4,5.8,81,0.00,,,0.00,WUHU216HW,2013-03-01 19:37:00,
2013-03-01 22:42:00,71.3,65.2,30.00,ESE,113,3.6,5.8,81,0.00,,,0.00,WUHU216HW,2013-03-01 19:42:00,
2013-03-01 22:47:00,71.3,65.2,30.01,ESE,113,0.4,5.8,81,0.00,,,0.00,WUHU216HW,2013-03-01 19:47:00,
2013-03-01 22:52:00,71.3,64.8,30.00,East,90,1.8,4.5,80,0.00,,,0.00,WUHU216HW,2013-03-01 19:52:00,
2013-03-01 22:57:00,71.3,64.8,30.00,SE,135,1.1,4.3,80,0.00,,,0.00,WUHU216HW,2013-03-01 19:57:00,
2013-03-01 23:02:00,71.3,64.8,30.00,ESE,113,1.8,3.1,80,0.00,,,0.00,WUHU216HW,2013-03-01 20:02:00,
2013-03-01 23:07:00,71.1,64.6,30.00,East,90,1.6,3.4,80,0.00,,,0.00,WUHU216HW,2013-03-01 20:07:00,
2013-03-01 23:12:00,71.1,64.6,30.00,ESE,113,2.7,3.4,80,0.00,,,0.00,WUHU216HW,2013-03-01 20:12:00,
2013-03-01 23:17:00,71.1,64.6,30.00,ESE,113,1.3,3.4,80,0.00,,,0.00,WUHU216HW,2013-03-01 20:17:00,
2013-03-01 23:22:00,71.1,64.6,30.00,ESE,113,1.1,4.3,80,0.00,,,0.00,WUHU216HW,2013-03-01 20:22:00,
2013-03-01 23:27:00,71.1,64.6,29.99,SE,135,1.3,4.5,80,0.00,,,0.00,WUHU216HW,2013-03-01 20:27:00,
2013-03-01 23:32:00,71.1,64.6,29.99,ESE,113,2.9,4.5,80,0.00,,,0.00,WUHU216HW,2013-03-01 20:32:00,
2013-03-01 23:37:00,71.1,64.6,29.99,ESE,113,3.6,3.6,80,0.00,,,0.00,WUHU216HW,2013-03-01 20:37:00,
2013-03-01 23:42:00,71.1,64.6,29.99,ESE,113,1.6,4.3,80,0.00,,,0.00,WUHU216HW,2013-03-01 20:42:00,
2013-03-01 23:47:00,71.1,64.6,29.99,SE,135,2.0,4.3,80,0.00,,,0.00,WUHU216HW,2013-03-01 20:47:00,
2013-03-01 23:52:00,71.1,64.6,29.99,ESE,113,1.1,3.4,80,0.00,,,0.00,WUHU216HW,2013-03-01 20:52:00,
2013-03-01 23:57:00,71.1,64.6,29.99,ESE,113,2.5,3.4,80,0.00,,,0.00,WUHU216HW,2013-03-01 20:57:00,